Location: Home
(42.5358°N, 72.7383°W)
Time: 15:03:46
(UTC-05:00)

Explorer 11/Cluster Stage 4 - Pass Details

Date: 22 December 2025
Orbit: 463 x 1179 km, 28.8° (Epoch: 21 January)

Event Time Altitude Azimuth Distance (km) Brightness Sun altitude
Rises 17:58:20 0° 255° (WSW) 3,986 12.0 -17.1°
Reaches altitude 10° 18:01:42 10° 243° (WSW) 3,070 10.8 -17.7°
Maximum altitude 18:07:37 24° 193° (SSW) 2,206 9.1 -18.7°
Drops below altitude 10° 18:13:29 10° 143° (SE) 3,030 9.3 -19.8°
Enters shadow 18:15:15 - 135° (SE) 3,490 9.6 -20.1°
